EUTELSAT KA-SAT 9A

Last updated on Thu Oct 30 2025 00:02:48 GMT+0000 (Coordinated Universal Time)

1 37258U 10069A 25302.54413810 .00000073 00000+0 00000+0 0 9997 2 37258 0.0525 318.2033 0002495 211.6347 73.2559 1.00274969 54506
UTC large
Height (km)
Speed (km/s)
/
Latitude / Longitude
Inclination (degrees)
Orbital Period (minutes)
Azimuth
Elevation
Range (km)
Doppler Factor

Next 0 passes for location: London (51.5072 / 0.1276)

Sorry there are no passes over London.